"2009-08-09 00:00:00",1135009,5.486,115.4,6.102,0.584,21.22,109.6089,23.89,24.81,23.85,0,111,13.15,24.73,77.4
"2009-08-09 00:00:30",1135010,5.255,123.4,3.719,0.405,21.19,109.6089,23.89,24.82,23.84,0,111,13.15,24.73,85.4
"2009-08-09 00:01:00",1135011,4.775,141.1,5.115,0.365,21.14,109.6089,23.89,24.82,23.97,0,111,13.15,24.73,103.1
"2009-08-09 00:01:30",1135012,4.892,140.7,3.049,0.276,21.09,109.6089,23.89,24.82,23.85,0,111,13.15,24.73,102.7
"2009-08-09 00:02:00",1135013,4.411,128.3,5.59,0.183,21.08,109.6089,23.89,24.83,23.92,0,111,13.15,24.73,90.3
"2009-08-09 00:02:30",1135014,4.444,124.5,6.172,0.335,21.09,109.6097,23.89,24.84,23.98,0,111,13.15,24.73,86.5
"2009-08-09 00:03:00",1135015,4.385,133.7,5.815,0.37,21.07,109.6154,23.91,24.85,23.88,0,111,13.16,24.74,95.7
"2009-08-09 00:03:30",1135016,4.401,128.3,3.1,0.351,21.07,109.6288,23.94,24.87,23.59,0,111,13.16,24.78,90.3
"2009-08-09 00:04:00",1135017,4.016,128.5,6.025,0.622,21.08,109.635,23.96,24.88,23.65,0,111,13.16,24.79,90.5
"2009-08-09 00:04:30",1135018,4.973,116.8,4.606,0.365,21.14,109.6401,23.97,24.87,23.85,0,111,13.16,24.81,78.8
"2009-08-09 00:05:00",1135019,4.626,120.8,3.161,0.245,21.15,109.6423,23.98,24.89,23.97,0,111,13.16,24.81,82.8
"2009-08-09 00:05:30",1135020,4.657,111.8,8.2,0.25,21.21,109.6426,23.98,24.9,24.06,0,111,13.16,24.81,73.8
"2009-08-09 00:06:00",1135021,3.839,117.4,6.796,0.498,21.15,109.6426,23.98,24.92,24.06,0,111,13.16,24.81,79.4
"2009-08-09 00:06:30",1135022,3.401,123.5,11.18,0.664,21.1,109.6426,23.98,24.91,24.02,0,111,13.16,24.81,85.5
"2009-08-09 00:07:00",1135023,4.132,122.7,5.066,0.403,21.12,109.6426,23.98,24.94,24.07,0,111,13.16,24.81,84.7
"2009-08-09 00:07:30",1135024,4.486,122.1,7.935,0.326,21.1,109.6457,23.98,24.93,24.05,0,111,13.16,24.82,84.1
"2009-08-09 00:08:00",1135025,4.747,124.9,8.08,0.246,21.06,109.651,24,24.95,24.03,0,111,13.16,24.83,86.9
"2009-08-09 00:08:30",1135026,5.456,130.7,3.091,0.172,21.07,109.6598,24.02,24.95,24,0,111,13.16,24.86,92.7
"2009-08-09 00:09:00",1135027,5.175,136.3,3.002,0.399,21.12,109.6727,24.05,24.96,24.15,0,111,13.16,24.89,98.3
"2009-08-09 00:09:30",1135028,5.856,133.3,3.639,1.189,21.16,109.6763,24.06,24.97,24.15,0,111,13.16,24.90,95.3
"2009-08-09 00:10:00",1135029,6.775,140.3,1.778,0.317,21.17,109.6763,24.06,24.98,24.03,0,111,13.16,24.90,102.3
"2009-08-09 00:10:30",1135030,6.402,142.9,3.724,0.235,21.16,109.6763,24.06,25,23.87,0,111,13.16,24.90,104.9
"2009-08-09 00:11:00",1135031,6.119,149.1,3.302,0.249,21.2,109.6763,24.06,25.01,23.83,0,111,13.16,24.90,111.1
"2009-08-09 00:11:30",1135032,6.962,149.6,5.458,0.303,21.22,109.6811,24.08,25.02,23.96,0,111,13.16,24.91,111.6
"2009-08-09 00:12:00",1135033,6.523,137.4,3.576,0.615,21.2,109.6853,24.09,25.02,24.09,0,111,13.16,24.92,99.4
"2009-08-09 00:12:30",1135034,6.625,131.4,1.824,0.283,21.23,109.6968,24.12,25.03,24.2,0,111,13.16,24.95,93.4
"2009-08-09 00:13:00",1135035,6.072,132.5,2.149,0.282,21.22,109.7075,24.14,25.05,24,0,111,13.16,24.98,94.5
"2009-08-09 00:13:30",1135036,5.352,128.7,7.577,0.236,21.23,109.71,24.15,25.07,23.99,0,111,13.16,24.99,90.7
"2009-08-09 00:14:00",1135037,5.719,130.9,6.016,0.366,21.23,109.71,24.15,25.07,23.91,0,111,13.16,24.99,92.9
"2009-08-09 00:14:30",1135038,6.751,134,2.683,0.544,21.18,109.71,24.15,25.09,23.84,0,111,13.16,24.99,96.0
"2009-08-09 00:15:00",1135039,6.27,132.3,2.616,0.197,21.14,109.71,24.15,25.1,23.81,0,111,13.15,24.99,94.3
"2009-08-09 00:15:30",1135040,5.967,133.8,3.119,0.512,21.1,109.7103,24.15,25.09,23.83,0,111,13.15,24.99,95.8
"2009-08-09 00:16:00",1135041,5.255,131.5,3.444,0.299,21.18,109.7148,24.16,25.12,23.95,0,111,13.15,25.00,93.5
"2009-08-09 00:16:30",1135042,5.246,130.4,4.024,0.257,21.24,109.7213,24.18,25.13,24.16,0,111,13.15,25.01,92.4
"2009-08-09 00:17:00",1135043,4.389,129.4,5.134,0.448,21.28,109.7336,24.21,25.12,24.29,0,111,13.15,25.05,91.4
"2009-08-09 00:17:30",1135044,3.492,143.8,14.35,0.295,21.18,109.7421,24.23,25.14,23.98,0,111,13.15,25.07,105.8
"2009-08-09 00:18:00",1135045,3.579,142.1,7.505,0.231,21.17,109.7438,24.24,25.14,23.61,0,111,13.15,25.07,104.1
"2009-08-09 00:18:30",1135046,3.544,131.1,5.947,0.259,21.26,109.7438,24.24,25.15,23.73,0,111,13.15,25.07,93.1
"2009-08-09 00:19:00",1135047,3.332,137.3,6.957,0.33,21.28,109.7438,24.24,25.16,23.81,0,111,13.15,25.07,99.3
"2009-08-09 00:19:30",1135048,3.754,138.4,3.441,0.275,21.33,109.7438,24.24,25.17,23.96,0,111,13.15,25.07,100.4
"2009-08-09 00:20:00",1135049,4.555,136.7,3.45,0.275,21.37,109.744,24.24,25.18,23.91,0,111,13.15,25.07,98.7
"2009-08-09 00:20:30",1135050,4.398,137.5,2.432,0.348,21.26,109.7468,24.24,25.18,23.34,0,111,13.16,25.08,99.5
"2009-08-09 00:21:00",1135051,3.812,141.1,4.166,0.15,21.24,109.7513,24.26,25.19,23.37,0,111,13.16,25.09,103.1
"2009-08-09 00:21:30",1135052,3.741,146.6,3.438,0.186,21.21,109.7536,24.26,25.2,23.42,0,111,13.16,25.10,108.6
"2009-08-09 00:22:00",1135053,4.418,139,2.569,0.151,21.16,109.7643,24.29,25.2,23.11,0,111,13.16,25.13,101.0
"2009-08-09 00:22:30",1135054,4.557,141.9,4.241,0.222,21.08,109.7761,24.32,25.21,22.9,0,111,13.16,25.16,103.9
"2009-08-09 00:23:00",1135055,4.668,145.3,4.001,0.316,20.99,109.7775,24.32,25.21,22.89,0,111,13.16,25.16,107.3
"2009-08-09 00:23:30",1135056,3.788,138.4,1.428,0.198,20.98,109.7775,24.32,25.24,22.92,0,111,13.16,25.16,100.4
"2009-08-09 00:24:00",1135057,3.883,139.4,3.539,0.387,20.96,109.7775,24.32,25.24,22.95,0,111,13.16,25.16,101.4
"2009-08-09 00:24:30",1135058,4.206,140,5.284,0.335,20.97,109.7775,24.32,25.25,22.95,0,111,13.16,25.16,102.0
"2009-08-09 00:25:00",1135059,4.139,136.3,4.315,0.433,20.98,109.7775,24.32,25.26,22.94,0,111,13.16,25.16,98.3
"2009-08-09 00:25:30",1135060,3.069,139.4,3.73,0.331,20.95,109.7775,24.32,25.26,22.87,0,111,13.16,25.16,101.4
"2009-08-09 00:26:00",1135061,2.757,130.3,5.455,0.206,20.94,109.7775,24.32,25.27,22.84,0,111,13.16,25.16,92.3
"2009-08-09 00:26:30",1135062,2.976,124.1,2.78,0.185,20.91,109.7775,24.32,25.27,22.84,0,111,13.16,25.16,86.1
"2009-08-09 00:27:00",1135063,2.492,137.5,4.594,0.171,20.96,109.7772,24.32,25.22,22.89,0,111,13.16,25.16,99.5
"2009-08-09 00:27:30",1135064,2.781,144.6,5.022,0.513,20.94,109.7721,24.31,25.22,23.41,0,111,13.16,25.15,106.6
"2009-08-09 00:28:00",1135065,1.819,79.41,31.21,0.91,20.25,109.7477,24.25,25.22,25.97,0,111,13.16,25.08,41.4
"2009-08-09 00:28:30",1135066,2.181,71.59,17.33,0.572,20.84,109.7178,24.17,25.18,25.53,0,111,13.16,25.01,33.6
"2009-08-09 00:29:00",1135067,2.849,21.71,6.216,0.524,19.55,109.7001,24.12,25.12,29.64,0,111,13.16,24.96,343.7
"2009-08-09 00:29:30",1135068,3.65,16.83,6.111,0.775,20.05,109.6901,24.1,25.1,30.01,0,111,13.16,24.93,338.8
"2009-08-09 00:30:00",1135069,4.315,27.53,11.04,1.581,20.55,109.689,24.1,25.08,28.86,0,111,13.16,24.93,349.5
"2009-08-09 00:30:30",1135070,5.96,37.18,8.58,0.874,20.49,109.6818,24.08,25.05,27.84,0,111,13.16,24.91,359.2
"2009-08-09 00:31:00",1135071,6.597,35.42,9.58,0.776,20.42,109.6785,24.07,25.05,28.75,0,111,13.16,24.90,357.4
"2009-08-09 00:31:30",1135072,6.807,22.73,5.55,0.501,19.82,109.6735,24.06,25.04,29.5,0,111,13.15,24.89,344.7
"2009-08-09 00:32:00",1135073,7.272,13.08,3.311,0.353,19.87,109.6729,24.05,25.04,29.86,0,111,13.15,24.89,335.1
"2009-08-09 00:32:30",1135074,5.563,3.126,5.528,0.9,19.93,109.6526,24,25.03,30.05,0,111,13.15,24.84,325.1
"2009-08-09 00:33:00",1135075,4.818,2.884,4.49,0.68,20.06,109.6417,23.97,25,29.73,0,111,13.15,24.81,324.9
"2009-08-09 00:33:30",1135076,3.984,13.51,2.436,0.68,20.09,109.618,23.91,24.97,29.79,0,111,13.15,24.75,335.5
"2009-08-09 00:34:00",1135077,3.217,8.58,2.497,0.254,20.1,109.6044,23.88,24.94,29.59,0,111,13.15,24.71,330.6
"2009-08-09 00:34:30",1135078,2.907,9.26,4.609,0.509,20.15,109.5774,23.81,24.91,29.63,0,111,13.15,24.64,331.3
"2009-08-09 00:35:00",1135079,2.635,7.635,7.372,0.804,20.23,109.5718,23.79,24.87,29.69,0,111,13.15,24.63,329.6
"2009-08-09 00:35:30",1135080,3.355,8.7,5.196,0.837,20.28,109.5448,23.73,24.83,29.48,0,111,13.15,24.56,330.7
"2009-08-09 00:36:00",1135081,2.583,6.88,5.437,0.79,20.35,109.5243,23.67,24.79,29.49,0,111,13.15,24.51,328.9
"2009-08-09 00:36:30",1135082,3.568,9.77,5.88,1.083,20.46,109.5077,23.63,24.74,29.65,0,111,13.15,24.46,331.8
"2009-08-09 00:37:00",1135083,3.682,11,5.922,1.355,20.82,109.4839,23.57,24.7,29.68,0,111,13.15,24.40,333.0
"2009-08-09 00:37:30",1135084,4.653,13.94,4.418,1.173,20.59,109.474,23.54,24.65,29.61,0,111,13.16,24.38,335.9
"2009-08-09 00:38:00",1135085,3.698,11.66,3.507,0.763,20.58,109.4704,23.53,24.61,30.06,0,111,13.16,24.37,333.7
"2009-08-09 00:38:30",1135086,5.307,16.12,4.721,1.297,20.67,109.4445,23.47,24.59,30.11,0,111,13.16,24.30,338.1
"2009-08-09 00:39:00",1135087,5.917,17.51,2.741,1.063,20.73,109.4403,23.46,24.56,30.22,0,111,13.16,24.29,339.5
"2009-08-09 00:39:30",1135088,6.322,18.97,3.17,0.443,20.66,109.4344,23.44,24.52,30.2,0,111,13.16,24.28,341.0
"2009-08-09 00:40:00",1135089,6.218,16.14,5.004,1.386,20.53,109.4094,23.38,24.49,30.03,0,111,13.16,24.21,338.1
"2009-08-09 00:40:30",1135090,6.426,20.1,4.277,0.701,20.55,109.4066,23.37,24.46,30.16,0,111,13.16,24.20,342.1
"2009-08-09 00:41:00",1135091,5.662,16.63,2.681,0.959,20.43,109.3847,23.31,24.43,30.07,0,111,13.16,24.15,338.6
"2009-08-09 00:41:30",1135092,5.571,18.05,3.413,0.614,20.38,109.3729,23.28,24.39,29.77,0,111,13.16,24.12,340.0
"2009-08-09 00:42:00",1135093,5.928,19.08,3.953,0.888,20.5,109.3695,23.27,24.37,30.04,0,111,13.16,24.11,341.1
"2009-08-09 00:42:30",1135094,6.964,19.69,1.738,0.597,20.61,109.3496,23.22,24.35,29.98,0,111,13.16,24.06,341.7
"2009-08-09 00:43:00",1135095,6.981,18.44,3.557,0.627,20.52,109.3392,23.2,24.3,30,0,111,13.16,24.03,340.4
"2009-08-09 00:43:30",1135096,6.418,12.61,4.092,0.833,20.49,109.3282,23.17,24.28,29.47,0,111,13.16,24.00,334.6
"2009-08-09 00:44:00",1135097,7.051,17.31,1.689,0.754,20.47,109.3066,23.11,24.25,29.8,0,111,13.16,23.95,339.3
"2009-08-09 00:44:30",1135098,7.6,13.67,2.389,1.036,20.48,109.3064,23.11,24.23,29.73,0,111,13.16,23.95,335.7
"2009-08-09 00:45:00",1135099,7.366,11.52,3.893,1.156,20.41,109.2859,23.06,24.19,29.74,0,111,13.16,23.89,333.5
"2009-08-09 00:45:30",1135100,6.898,9.75,3.469,0.849,20.36,109.2748,23.03,24.16,29.54,0,111,13.16,23.86,331.8
"2009-08-09 00:46:00",1135101,6.89,11.8,2.53,0.809,20.4,109.2667,23.01,24.12,29.69,0,111,13.17,23.84,333.8
"2009-08-09 00:46:30",1135102,7.508,12.3,4.261,0.7,20.44,109.2434,22.95,24.1,29.6,0,111,13.17,23.78,334.3
"2009-08-09 00:47:00",1135103,5.966,10.9,3.042,0.606,20.38,109.2414,22.95,24.07,29.47,0,111,13.17,23.78,332.9
"2009-08-09 00:47:30",1135104,6.318,10.15,4.78,1.05,20.43,109.2214,22.89,24.04,29.44,0,111,13.17,23.73,332.1
"2009-08-09 00:48:00",1135105,5.788,9.18,3.718,1.258,20.37,109.2086,22.86,24,28.98,0,111,13.17,23.69,331.2
"2009-08-09 00:48:30",1135106,5.739,5.989,4.057,0.77,20.36,109.2054,22.85,23.98,29.06,0,111,13.17,23.69,328.0
"2009-08-09 00:49:00",1135107,5.193,4.322,3.236,0.352,20.32,109.1846,22.8,23.96,28.68,0,111,13.16,23.63,326.3
"2009-08-09 00:49:30",1135108,4.898,10.25,3.818,0.591,20.35,109.1776,22.78,23.91,28.61,0,111,13.16,23.61,332.2
"2009-08-09 00:50:00",1135109,6.051,15.77,1.841,0.559,20.36,109.1611,22.74,23.87,28.58,0,111,13.16,23.57,337.8
"2009-08-09 00:50:30",1135110,6.982,16.18,1.757,0.729,20.36,109.1593,22.74,23.84,28.83,0,111,13.16,23.57,338.2
"2009-08-09 00:51:00",1135111,8.38,18.51,1.08,0.479,20.4,109.1531,22.72,23.81,29.15,0,111,13.16,23.55,340.5
"2009-08-09 00:51:30",1135112,8.17,17.92,1.329,0.392,20.43,109.135,22.67,23.78,29.54,0,111,13.16,23.50,339.9
"2009-08-09 00:52:00",1135113,8.67,17.21,1.345,0.511,20.5,109.1305,22.66,23.75,29.59,0,111,13.16,23.49,339.2
"2009-08-09 00:52:30",1135114,7.724,18.52,1.788,1.296,20.43,109.1265,22.65,23.73,29.61,0,111,13.16,23.48,340.5
"2009-08-09 00:53:00",1135115,8.43,25.56,4.379,0.581,20.6,109.1041,22.59,23.71,30.07,0,111,13.16,23.42,347.6
"2009-08-09 00:53:30",1135116,7.806,19.02,1.182,0.541,20.4,109.0989,22.58,23.65,29.95,0,111,13.17,23.41,341.0
"2009-08-09 00:54:00",1135117,8.19,19.07,0.645,0.287,20.44,109.0927,22.56,23.64,29.75,0,111,13.17,23.39,341.1
"2009-08-09 00:54:30",1135118,7.952,18.68,1.582,0.298,20.41,109.0741,22.52,23.61,29.55,0,111,13.17,23.35,340.7
"2009-08-09 00:55:00",1135119,7.073,17.92,1.254,0.683,20.38,109.0719,22.51,23.58,29.36,0,111,13.18,23.34,339.9
"2009-08-09 00:55:30",1135120,7.509,18.9,4.374,1.179,20.46,109.0708,22.51,23.56,29.45,0,111,13.18,23.34,340.9
"2009-08-09 00:56:00",1135121,8.51,26.94,5.834,0.478,20.72,109.0553,22.47,23.54,30.47,0,111,13.18,23.30,348.9
"2009-08-09 00:56:30",1135122,8.07,15.97,2.782,0.584,20.38,109.0388,22.43,23.5,29.63,0,111,13.18,23.26,338.0
"2009-08-09 00:57:00",1135123,7.384,19.3,1.195,0.263,20.43,109.0388,22.43,23.49,29.28,0,111,13.18,23.26,341.3
"2009-08-09 00:57:30",1135124,7.57,19.53,1.078,0.242,20.4,109.0337,22.41,23.46,29.22,0,110.9,13.18,23.24,341.5
"2009-08-09 00:58:00",1135125,7.131,18.19,1.431,0.612,20.42,109.0157,22.37,23.45,29.26,0,110.9,13.18,23.20,340.2
"2009-08-09 00:58:30",1135126,6.584,15.6,2.289,1.453,20.44,109.0051,22.34,23.43,29.17,0,110.9,13.18,23.17,337.6
"2009-08-09 00:59:00",1135127,9.25,21.48,7.17,1.174,20.64,109.0051,22.34,23.41,29.48,0,110.9,13.18,23.17,343.5
"2009-08-09 00:59:30",1135128,8.25,50.16,12.02,1.532,21.14,109.0051,22.34,23.39,31.23,0,110.9,13.18,23.17,12.2
"2009-08-09 01:00:00",1135129,6.055,39.37,15.57,1.063,21.17,109.0048,22.34,23.38,31.91,0,110.9,13.18,23.17,1.4
"2009-08-09 01:00:30",1135130,5.293,22.52,14.88,1.262,20.68,108.9983,22.32,23.37,31.2,0,110.9,13.18,23.15,344.5
"2009-08-09 01:01:00",1135131,7.561,22.71,5.934,0.631,20.55,108.9899,22.3,23.35,30.61,0,110.9,13.18,23.13,344.7
"2009-08-09 01:01:30",1135132,7.852,24.24,2.367,0.531,20.4,108.9814,22.28,23.34,30.01,0,110.9,13.18,23.11,346.2
"2009-08-09 01:02:00",1135133,7.594,24.53,1.292,0.336,20.36,108.977,22.27,23.33,29.35,0,110.9,13.18,23.10,346.5
"2009-08-09 01:02:30",1135134,8.13,20.73,1.24,0.265,20.36,108.9716,22.25,23.32,29.22,0,110.9,13.18,23.08,342.7
"2009-08-09 01:03:00",1135135,7.713,21.41,1.523,0.256,20.4,108.9713,22.25,23.3,29.14,0,110.9,13.18,23.08,343.4
"2009-08-09 01:03:30",1135136,7.744,25.42,1.691,0.575,20.37,108.9713,22.25,23.3,29.07,0,110.9,13.18,23.08,347.4
"2009-08-09 01:04:00",1135137,7.446,25.82,1.805,0.475,20.39,108.9713,22.25,23.28,29.01,0,110.9,13.18,23.08,347.8
"2009-08-09 01:04:30",1135138,6.974,21.92,2.547,0.438,20.4,108.9593,22.22,23.26,29.22,0,110.9,13.18,23.05,343.9
"2009-08-09 01:05:00",1135139,8.1,20.73,1.809,0.45,20.46,108.9461,22.19,23.26,29.04,0,110.9,13.18,23.02,342.7
"2009-08-09 01:05:30",1135140,8.32,19.69,1.303,0.327,20.46,108.9382,22.17,23.23,28.99,0,110.9,13.18,23.00,341.7
"2009-08-09 01:06:00",1135141,7.923,21.94,1.733,0.465,20.41,108.9379,22.17,23.23,29.13,0,110.9,13.18,23.00,343.9
"2009-08-09 01:06:30",1135142,7.471,22.39,1.549,0.406,20.41,108.9401,22.17,23.22,29.11,0,110.9,13.18,23.00,344.4
"2009-08-09 01:07:00",1135143,7.661,25.6,1.612,0.505,20.41,108.9432,22.18,23.21,28.72,0,110.9,13.18,23.01,347.6
"2009-08-09 01:07:30",1135144,7.442,25.32,1.538,0.551,20.44,108.9326,22.15,23.2,29.25,0,110.9,13.18,22.98,347.3
"2009-08-09 01:08:00",1135145,7.634,25.98,2.083,0.608,20.43,108.9227,22.13,23.2,29.45,0,110.9,13.18,22.96,348.0
"2009-08-09 01:08:30",1135146,8.1,25.8,1.89,0.899,20.42,108.9152,22.11,23.19,29.83,0,110.9,13.18,22.94,347.8
"2009-08-09 01:09:00",1135147,6.206,26.49,1.704,0.685,20.34,108.9226,22.13,23.17,28.81,0,110.9,13.18,22.96,348.5
"2009-08-09 01:09:30",1135148,6.342,20.31,2.33,0.272,20.37,108.9263,22.14,23.14,28.86,0,110.9,13.18,22.97,342.3
"2009-08-09 01:10:00",1135149,6.594,21.34,2.905,0.502,20.4,108.923,22.13,23.14,29.37,0,110.9,13.19,22.96,343.3
"2009-08-09 01:10:30",1135150,6.558,20.85,3.047,0.748,20.45,108.912,22.1,23.12,30.36,0,110.9,13.19,22.93,342.9
"2009-08-09 01:11:00",1135151,6.642,23.21,2.088,0.419,20.42,108.9047,22.08,23.1,29.3,0,110.9,13.19,22.91,345.2
"2009-08-09 01:11:30",1135152,6.631,24.08,3.051,0.451,20.38,108.8994,22.07,23.09,29.14,0,110.9,13.19,22.90,346.1
"2009-08-09 01:12:00",1135153,6.759,21.94,2.678,0.412,20.41,108.8977,22.06,23.1,29.28,0,110.9,13.19,22.89,343.9
"2009-08-09 01:12:30",1135154,6.164,17.91,1.608,0.397,20.43,108.8986,22.07,23.08,29.26,0,110.9,13.19,22.89,339.9
"2009-08-09 01:13:00",1135155,6.558,18.35,0.977,0.501,20.44,108.9008,22.07,23.07,28.89,0,110.9,13.19,22.90,340.4
"2009-08-09 01:13:30",1135156,6.687,18.07,1.687,0.675,20.41,108.9017,22.07,23.06,29.01,0,110.9,13.19,22.90,340.1
"2009-08-09 01:14:00",1135157,6.303,17.7,1.407,0.819,20.42,108.9024,22.08,23.05,29.15,0,110.9,13.19,22.90,339.7
"2009-08-09 01:14:30",1135158,6.437,16.78,2.438,1,20.39,108.9008,22.07,23.03,29.2,0,110.9,13.19,22.90,338.8
"2009-08-09 01:15:00",1135159,6.689,24.6,2.248,0.647,20.38,108.8955,22.06,23.03,29.7,0,110.9,13.19,22.89,346.6
"2009-08-09 01:15:30",1135160,7.104,23.32,3.951,0.633,20.38,108.886,22.03,23.02,30.15,0,110.9,13.19,22.86,345.3
"2009-08-09 01:16:00",1135161,6.679,20.56,3.915,0.93,20.39,108.8742,22,23.02,30.52,0,110.9,13.19,22.83,342.6
"2009-08-09 01:16:30",1135162,7.105,20.18,1.825,0.332,20.39,108.8731,22,23.02,30.13,0,110.9,13.2,22.83,342.2
"2009-08-09 01:17:00",1135163,7.151,18.46,1.536,0.668,20.42,108.8731,22,23.01,29.95,0,110.9,13.2,22.83,340.5
"2009-08-09 01:17:30",1135164,6.465,23.93,3.197,0.462,20.35,108.8731,22,23.01,30.47,0,110.9,13.2,22.83,345.9
"2009-08-09 01:18:00",1135165,6.257,17.98,2.849,1.024,20.39,108.8731,22,22.98,30.41,0,110.9,13.2,22.83,340.0
"2009-08-09 01:18:30",1135166,6.32,17.7,2.847,0.587,20.38,108.8731,22,22.99,30.11,0,110.9,13.2,22.83,339.7
"2009-08-09 01:19:00",1135167,6.253,17.43,1.668,0.649,20.41,108.8678,21.99,22.98,30.12,0,110.9,13.2,22.82,339.4
"2009-08-09 01:19:30",1135168,6.848,18.19,0.929,0.595,20.38,108.8546,21.95,22.97,29.95,0,110.9,13.2,22.78,340.2
"2009-08-09 01:20:00",1135169,5.248,13.38,2.406,0.875,20.4,108.8473,21.93,22.96,30.18,0,110.9,13.2,22.76,335.4
"2009-08-09 01:20:30",1135170,5.206,12.63,4.017,1.435,20.4,108.8414,21.92,22.95,30.31,0,110.9,13.2,22.75,334.6
"2009-08-09 01:21:00",1135171,4.93,6.501,2.168,0.443,20.35,108.8394,21.91,22.94,30.44,0,110.9,13.2,22.74,328.5
"2009-08-09 01:21:30",1135172,6.526,14.93,4.237,1.169,20.45,108.8394,21.91,22.95,30.6,0,110.9,13.2,22.74,336.9
"2009-08-09 01:22:00",1135173,5.551,11.68,3.984,0.766,20.4,108.8394,21.91,22.94,30.39,0,110.9,13.2,22.74,333.7
"2009-08-09 01:22:30",1135174,7.483,17.96,4.277,1.287,20.49,108.8394,21.91,22.93,30.9,0,110.9,13.2,22.74,340.0
"2009-08-09 01:23:00",1135175,6.201,17.9,3.641,1.144,20.42,108.8394,21.91,22.93,31.06,0,110.9,13.19,22.74,339.9
"2009-08-09 01:23:30",1135176,4.901,12.31,2.717,0.93,20.43,108.8394,21.91,22.91,31.05,0,110.9,13.19,22.74,334.3
"2009-08-09 01:24:00",1135177,6.657,16.01,4.284,1.304,20.44,108.8372,21.91,22.91,30.79,0,110.9,13.19,22.74,338.0
"2009-08-09 01:24:30",1135178,7.576,19.89,2.116,0.524,20.46,108.8321,21.9,22.9,30.69,0,110.9,13.19,22.72,341.9
"2009-08-09 01:25:00",1135179,5.382,14.53,4.269,1.509,20.43,108.8284,21.89,22.89,30.67,0,110.9,13.19,22.71,336.5
"2009-08-09 01:25:30",1135180,6.764,20.76,3.424,0.668,20.46,108.8166,21.86,22.9,30.93,0,110.9,13.19,22.68,342.8
"2009-08-09 01:26:00",1135181,6.024,18,1.298,0.428,20.45,108.809,21.84,22.89,30.76,0,110.9,13.19,22.66,340.0
"2009-08-09 01:26:30",1135182,5.625,15.66,2.268,0.751,20.47,108.8062,21.83,22.89,30.54,0,110.9,13.19,22.66,337.7
"2009-08-09 01:27:00",1135183,4.136,12.72,4.429,1.161,20.36,108.8057,21.83,22.88,30.48,0,110.9,13.19,22.66,334.7
"2009-08-09 01:27:30",1135184,5.715,17.57,1.993,0.757,20.41,108.8057,21.83,22.87,30.6,0,110.9,13.19,22.66,339.6
"2009-08-09 01:28:00",1135185,7.401,16.26,2.284,1.475,20.3,108.8057,21.83,22.88,30.56,0,110.9,13.2,22.66,338.3
"2009-08-09 01:28:30",1135186,6.955,13.42,7.48,0.955,20.25,108.8057,21.83,22.86,30.28,0,110.9,13.2,22.66,335.4
"2009-08-09 01:29:00",1135187,7.812,9.11,5.02,0.993,20.31,108.8057,21.83,22.87,29.33,0,110.9,13.2,22.66,331.1
"2009-08-09 01:29:30",1135188,7.259,9.54,3.941,0.799,20.33,108.806,21.83,22.85,28.41,0,110.9,13.2,22.66,331.5
"2009-08-09 01:30:00",1135189,6.556,15,3.618,0.687,20.27,108.8066,21.83,22.85,28.21,0,110.9,13.2,22.66,337.0
"2009-08-09 01:30:30",1135190,7.087,14.32,3.931,1.001,20.26,108.8072,21.83,22.84,28.55,0,110.9,13.2,22.66,336.3
"2009-08-09 01:31:00",1135191,7.07,18.4,1.372,0.366,20.37,108.8008,21.81,22.83,30.12,0,110.9,13.2,22.64,340.4
"2009-08-09 01:31:30",1135192,7.15,20.39,3.411,0.758,20.39,108.791,21.79,22.82,30.23,0,110.9,13.2,22.62,342.4
"2009-08-09 01:32:00",1135193,7.332,24.2,6.343,0.971,20.46,108.7868,21.78,22.83,30.46,0,110.9,13.2,22.61,346.2
"2009-08-09 01:32:30",1135194,6.288,21.52,4.86,0.682,20.35,108.784,21.77,22.84,30.61,0,110.9,13.2,22.60,343.5
"2009-08-09 01:33:00",1135195,7.748,28.48,5.09,1.01,20.51,108.7777,21.76,22.82,31.18,0,110.9,13.2,22.58,350.5
"2009-08-09 01:33:30",1135196,10.22,33.51,7.091,1.536,20.4,108.7811,21.76,22.8,31.55,0,110.9,13.2,22.59,355.5
"2009-08-09 01:34:00",1135197,8.25,27.18,4.6,1.263,20.4,108.7783,21.76,22.79,30.89,0,110.9,13.2,22.58,349.2
"2009-08-09 01:34:30",1135198,7.324,21.95,2.841,0.636,20.31,108.7829,21.77,22.79,29.35,0,110.9,13.2,22.60,344.0
"2009-08-09 01:35:00",1135199,6.654,20.69,4.186,1.159,20.3,108.7811,21.76,22.78,29.3,0,110.9,13.2,22.59,342.7
"2009-08-09 01:35:30",1135200,6.847,22.26,5.038,0.759,20.33,108.7814,21.76,22.78,28.71,0,110.9,13.2,22.59,344.3
"2009-08-09 01:36:00",1135201,7.342,22.36,3.595,0.897,20.41,108.7829,21.77,22.76,30.83,0,110.9,13.2,22.60,344.4
"2009-08-09 01:36:30",1135202,6.361,27.81,3.439,0.832,20.39,108.7826,21.77,22.77,30.89,0,110.9,13.2,22.60,349.8
"2009-08-09 01:37:00",1135203,6.742,23.29,3.877,0.873,20.4,108.7857,21.78,22.77,30.75,0,110.9,13.2,22.60,345.3
"2009-08-09 01:37:30",1135204,6.831,22.5,2.679,0.637,20.38,108.786,21.78,22.76,27.98,0,110.9,13.2,22.60,344.5
"2009-08-09 01:38:00",1135205,7.023,20.65,2.645,0.597,20.41,108.7903,21.79,22.75,28.57,0,110.9,13.2,22.62,342.6
"2009-08-09 01:38:30",1135206,7.174,21.91,2.753,0.408,20.36,108.7946,21.8,22.75,29.22,0,110.9,13.2,22.63,343.9
"2009-08-09 01:39:00",1135207,7.443,19.98,1.989,0.654,20.35,108.7958,21.8,22.75,27.62,0,110.9,13.21,22.63,342.0
"2009-08-09 01:39:30",1135208,7.75,22.11,2.731,0.403,20.33,108.7967,21.8,22.74,27.52,0,110.9,13.21,22.63,344.1
"2009-08-09 01:40:00",1135209,7.138,19.2,2.95,0.93,20.29,108.7956,21.8,22.73,25.55,0,110.9,13.2,22.63,341.2
"2009-08-09 01:40:30",1135210,5.804,15.31,2.272,1.11,20.08,108.7965,21.8,22.74,23.84,0,110.9,13.2,22.63,337.3
"2009-08-09 01:41:00",1135211,8.29,23.16,3.271,0.744,19.6,108.7904,21.79,22.73,25.93,0,110.9,13.2,22.62,345.2
"2009-08-09 01:41:30",1135212,8.63,23.77,1.963,0.41,19.76,108.7765,21.75,22.74,26.67,0,110.9,13.2,22.58,345.8
"2009-08-09 01:42:00",1135213,7.648,25.85,1.765,0.541,19.87,108.7684,21.73,22.73,25.91,0,110.9,13.2,22.56,347.9
"2009-08-09 01:42:30",1135214,7.38,27.14,1.786,0.296,19.85,108.7679,21.73,22.73,26.27,0,110.9,13.2,22.56,349.1
"2009-08-09 01:43:00",1135215,7.459,28.76,1.488,0.694,19.85,108.7627,21.72,22.71,25.7,0,110.9,13.2,22.54,350.8
"2009-08-09 01:43:30",1135216,8.44,30.22,0.661,0.643,19.89,108.7397,21.66,22.68,24.71,0,110.9,13.2,22.49,352.2
"2009-08-09 01:44:00",1135217,8.77,29.14,1.448,0.447,20.19,108.7387,21.66,22.65,24.55,0,110.9,13.2,22.48,351.1
"2009-08-09 01:44:30",1135218,7.584,30.4,1.315,0.844,20.27,108.7378,21.65,22.64,26.09,0,110.9,13.2,22.48,352.4
"2009-08-09 01:45:00",1135219,7.477,29.22,1.672,0.802,20.02,108.7311,21.64,22.62,25.53,0,110.9,13.2,22.46,351.2
"2009-08-09 01:45:30",1135220,8.62,29.58,2.129,0.716,20.07,108.7166,21.6,22.61,24.58,0,110.9,13.2,22.43,351.6
"2009-08-09 01:46:00",1135221,8.48,30.84,1.176,0.572,20.05,108.7113,21.59,22.59,24.57,0,110.9,13.21,22.41,352.8
"2009-08-09 01:46:30",1135222,8.02,29.81,0.818,0.738,20.03,108.7071,21.57,22.58,23.63,0,110.9,13.21,22.40,351.8
"2009-08-09 01:47:00",1135223,7.526,31.35,1.57,0.785,20.31,108.7074,21.57,22.57,28.16,0,110.9,13.21,22.40,353.4
"2009-08-09 01:47:30",1135224,9.83,36.75,1.592,0.325,20.32,108.7074,21.57,22.58,31.63,0,110.9,13.21,22.40,358.8
"2009-08-09 01:48:00",1135225,8.99,35.75,2.802,0.99,20.27,108.7074,21.57,22.58,31.42,0,110.9,13.21,22.40,357.8